Regional Weather Roundup
Issued by NWS

Home | Current Version | Previous Version | Text Only | Print | Product List | Glossary Off
Versions: 1 2 3 4 5 6 7 8 9 10 11 12 13 14 15 16 17 18 19 20 21 22 23 24 25 26 27 28 29 30 31 32 33 34 35 36 37 38 39 40 41 42 43 44 45 46 47 48 49 50

113
ASUS43 KDTX 061401
RWRMI
MICHIGAN HOURLY REGIONAL WEATHER ROUNDUP
NATIONAL WEATHER SERVICE DETROIT/PONTIAC MI
900 AM EST TUE DEC 06 2016

NOTE: "FAIR" INDICATES FEW OR NO CLOUDS BELOW 12,000 FEET WITH NO
SIGNIFICANT WEATHER AND/OR OBSTRUCTION TO VISIBILITY.

MIZ047>049-052>055-059>063-066>070-074>076-081>083-061500-
SOUTHEAST LOWER MICHIGAN

CITY           SKY/WX    TMP DP  RH WIND       PRES   REMARKS
ADRIAN         PTCLDY    34  33  96 E13       29.80F WCI  25
ALMA           CLOUDY    29  28  96 NE6       29.87S FOG     WCI  23
ANN ARBOR      PTCLDY    37  33  85 E9        29.82F WCI  30
BAD AXE        CLOUDY    35  31  87 SE5       29.90F WCI  31
CARO           CLOUDY    32  30  94 E8        29.88F FOG     WCI  25
DETROIT CITY   MOCLDY    38  35  89 E9        29.88R WCI  31
DETROIT        CLOUDY    39  34  82 E13       29.85F WCI  31
FLINT          CLOUDY    34  31  88 E10       29.85F WCI  26
GROSSE ILE     PTSUNNY   38  34  84 E7        29.84S WCI  33
HILLSDALE      CLOUDY    32  32 100 E14G20    29.76F FOG     WCI  22
HOWELL         CLOUDY    35  32  88 E9        29.82F WCI  28

CITY           SKY/WX    TMP DP  RH WIND       PRES   REMARKS
JACKSON        CLOUDY    35  31  85 E9        29.79F WCI  28
LAMBERTVILLE   CLOUDY    40  34  78 E6        29.80F
LANSING        PTCLDY    31  28  89 E7        29.82F FOG     WCI  24
LAPEER         NOT AVBL
MASON          CLOUDY    34  32  92 E7        29.81F WCI  28
MONROE         MOCLDY    41  36  80 E13G20    29.82F
MT. CLEMENS    CLOUDY    36  33  90 NE12      29.86F WCI  28
PONTIAC        MOCLDY    35  31  85 E10       29.83F WCI  27
PORT HOPE        N/A     40  32  73 SE23G30   29.90F WCI  30
PORT HURON     CLOUDY    34  30  86 E10       29.89F WCI  26
TRI CITIES     CLOUDY    30  28  92 NE8       29.88F FOG     WCI  22
MIDLAND        FAIR      32  30  93 NE6       29.88F WCI  26
TROY           MOCLDY    35  31  86 NE9       29.88S WCI  28
SAGINAW HB     CLOUDY    30  28  93 NE3       29.87F FOG
$$
MIZ043>046-050>051-056>058-064>065-071>073-077>080-061500-
SOUTHWEST LOWER MICHIGAN

CITY           SKY/WX    TMP DP  RH WIND       PRES   REMARKS
BATTLE CREEK   CLOUDY    34  32  92 E9        29.80F WCI  27
BENTON HARBOR  CLOUDY    32  28  85 E7        29.77F FOG     WCI  26
BIG RAPIDS     CLOUDY    34  30  86 E6        29.85S WCI  28
COLDWATER      CLOUDY    36  32  85 E7        29.78F WCI  30
FREMONT        CLOUDY    32  28  86 E6        29.84S FOG     WCI  26
HOLLAND        PTCLDY    31  28  89 E8        29.81F WCI  23
GRAND RAPIDS   MOCLDY    30  27  88 NE9       29.83S FOG     WCI  22
IONIA          FAIR      28  27  99 NE8       29.82F FOG     WCI  19
KALAMAZOO      CLOUDY    33  29  85 E5        29.79F FOG     WCI  29
LUDINGTON      CLOUDY    32  30  92 SE12      29.82F FOG     WCI  23
MARSHALL       CLOUDY    35  32  92 E7        29.80S WCI  29
MOUNT PLEASANT PTCLDY    30  29  95 NE6       29.86F FOG     WCI  24
MUSKEGON       MOCLDY    33  30  88 E8        29.83F FOG     WCI  26
SOUTH HAVEN      N/A    N/A N/A N/A MISG        N/A
$$
MIZ016>042-061500-
NORTHERN LOWER MICHIGAN

CITY           SKY/WX    TMP DP  RH WIND       PRES   REMARKS
ALPENA         PTCLDY    31  29  92 CALM      29.93F FOG
BEAVER ISLAND  CLOUDY    37  33  85 SE10G17   29.85F WCI  30
BELLAIRE       PTCLDY    34  30  85 CALM      29.88F
CADILLAC       CLOUDY    31  28  91 SE10      29.84S FOG     WCI  22
CHARLEVOIX     CLOUDY    35  31  87 SE10      29.89F WCI  27
FRANKFORT      CLOUDY    34  30  84 SE9       29.81F WCI  27
GAYLORD        PTCLDY    30  27  88 SE9       29.87F FOG     WCI  22
GRAYLING       PTCLDY    29  28  98 E5        29.88F FOG     WCI  23
HARBOR SPRINGS CLOUDY    34  31  88 E6        29.88F WCI  29
HOUGHTON LAKE  PTCLDY    30  29  96 E7        29.88F FOG     WCI  23
MANISTEE       CLOUDY    32  29  88 SE7       29.82F WCI  26
OSCODA         CLOUDY    39  34  81 SE12      29.92F WCI  32
PELLSTON       PTCLDY    34  29  82 SE8       29.90F WCI  27
ROGERS CITY    CLOUDY    35  32  90 SE5       29.93F FOG     WCI  31
TRAVERSE CITY  CLOUDY    35  29  78 SE8       29.83F WCI  29
$$
MIZ007>008-015-061500-
EASTERN UPPER MICHIGAN

CITY           SKY/WX    TMP DP  RH WIND       PRES   REMARKS
MACKINAC ISLAN CLOUDY    36  31  83 SE13G21   29.90F WCI  27
NEWBERRY       CLOUDY    34  33  96 SE14      29.85S WCI  25
S. S. MARIE    LGT RAIN  36  34  92 E9        29.91F WCI  29
MUNISING         N/A     39  36  89 S9G16     29.79F WCI  33
$$
MIZ004>006-011>014-085-061500-
CENTRAL UPPER MICHIGAN

CITY           SKY/WX    TMP DP  RH WIND       PRES   REMARKS
MANISTIQUE     CLOUDY    39  36  89 SE13      29.83F WCI  32
ESCANABA       CLOUDY    40  34  79 SE16G23   29.78F WCI  31
MENOMINEE      CLOUDY    39  35  86 S9        29.78F WCI  33
SAWYER-GWINN   CLOUDY    36  34  93 SE12      29.76F WCI  27
$$
MIZ001>003-009>011-084-061500-
WESTERN UPPER MICHIGAN

CITY           SKY/WX    TMP DP  RH WIND       PRES   REMARKS
IRON MOUNTAIN  CLOUDY    36  32  85 S10       29.73F WCI  28
HOUGHTON       CLOUDY    36  30  79 SE13      29.67F WCI  27
COPPER HARBOR    N/A     41  36  82 S15G33    29.69F
IRONWOOD       LGT SNOW  33  29  85 S14G21    29.59F FOG     WCI  23
$$

ABBREVIATIONS USED IN REMARKS
   TC - TEMPERATURE IN CELSIUS
  WCI - WIND CHILL INDEX
   HX - HEAT INDEX
  VSB - VISIBILITY





USA.gov is the U.S. government's official web portal to all federal, state and local government web resources and services.